EW9042 Weather Reports


time (UTC)temp
F
wind
direction
speed
knots
gust
knots
rain 1hr
in
rain 24hr
in
rain mn
in
humidity
%
barometer
mb
20260506051050 49 349 0.0 0.0 0.01 0.97 0.01 96 1011.1
20260506050550 49 349 0.0 0.0 0.01 0.97 0.01 96 1011.1
20260506045053 49 349 0.0 0.0 0.01 1.09 0.01 95 1011.1
20260506044559 49 349 0.0 0.0 0.01 1.09 0.01 95 1011.1
20260506044048 49 349 0.0 0.0 0.00 1.09 0.00 95 1011.1
20260506043548 49 349 0.0 0.0 0.00 1.09 0.00 95 1011.1
20260506043048 49 349 0.0 0.0 0.00 1.09 0.00 95 1011.1
20260506042548 49 349 0.0 0.0 0.00 1.09 0.00 95 1011.1
20260506042048 49 349 0.0 0.0 0.00 1.09 0.00 96 1011.1
20260506041549 49 349 0.0 0.0 0.00 1.09 0.00 95 1011.1
20260506041046 49 349 0.0 0.0 0.00 1.09 0.00 95 1011.1
20260506040546 49 349 0.0 0.0 0.00 1.09 0.00 95 1011.2
20260506040046 49 349 0.0 0.0 0.00 1.09 0.00 95 1011.2
20260506035546 49 349 0.0 0.0 0.00 1.15 0.00 95 1011.2
20260506035045 49 349 0.0 0.0 0.00 1.15 0.00 95 1011.2
20260506034545 49 349 0.0 0.0 0.00 1.15 0.00 95 1011.2
20260506034043 49 349 0.0 0.0 0.00 1.15 0.00 95 1011.3
20260506033543 49 349 0.0 0.0 0.00 1.15 0.00 95 1011.3
20260506033046 49 349 0.0 0.0 0.00 1.15 0.00 95 1011.3
20260506032547 50 349 0.0 0.0 0.00 1.15 0.00 95 1011.3
20260506032043 50 349 0.0 0.0 0.00 1.15 0.00 95 1011.3
20260506031549 50 349 0.0 0.0 0.00 1.15 0.00 95 1011.3
20260506031044 50 349 0.0 0.0 0.00 1.15 0.00 95 1011.3
20260506030546 50 349 0.0 0.0 0.00 1.15 0.00 95 1011.3
20260506030042 50 349 0.0 0.0 0.00 1.15 0.00 95 1011.3
20260506025542 50 349 0.0 0.0 0.00 1.25 0.00 95 1011.3
20260506025042 50 349 0.0 0.0 0.00 1.25 0.00 95 1011.3
20260506024547 50 349 0.0 0.0 0.00 1.25 0.00 95 1011.3
20260506024041 50 349 0.0 0.0 0.00 1.25 0.00 95 1011.3
20260506023541 50 349 0.0 0.0 0.00 1.25 0.00 95 1011.3
20260506023040 50 349 0.0 0.0 0.00 1.25 0.00 95 1011.3
20260506022540 50 349 0.0 0.0 0.00 1.25 0.00 95 1011.3
20260506022039 50 349 0.0 0.0 0.00 1.25 0.00 95 1011.3
20260506021539 50 349 0.0 0.0 0.00 1.25 0.00 95 1011.3
20260506021039 50 349 0.0 0.0 0.00 1.25 0.00 95 1011.3
20260506020538 50 349 0.0 0.0 0.00 1.25 0.00 95 1011.3
20260506020038 50 349 0.0 0.0 0.00 1.25 0.00 95 1011.4
20260506015541 50 349 0.0 0.0 0.00 1.32 0.00 95 1011.4
20260506015038 50 349 0.0 0.0 0.00 1.32 0.00 95 1011.4
20260506014541 50 349 0.0 0.0 0.00 1.32 0.00 95 1011.4
20260506014039 51 349 0.0 0.0 0.00 1.32 0.00 95 1011.4
20260506013536 51 349 0.0 0.0 0.00 1.32 0.00 95 1011.4
20260506013036 51 349 0.0 0.0 0.00 1.32 0.00 95 1011.4
20260506012535 51 349 0.0 0.0 0.00 1.32 0.00 95 1011.5
20260506012039 50 349 0.0 0.0 0.00 1.32 0.00 95 1011.5
20260506011534 50 349 0.0 0.0 0.00 1.32 0.00 95 1011.6
20260506011036 51 349 0.0 0.0 0.00 1.32 0.00 95 1011.6
20260506010537 51 349 0.0 0.0 0.00 1.32 0.00 95 1011.6
20260506010035 51 349 0.0 0.0 0.00 1.32 0.00 95 1011.7
20260506005535 51 349 0.0 0.0 0.00 1.42 0.00 95 1011.7
20260506005033 51 349 0.0 0.0 0.00 1.42 0.00 95 1011.7
20260506004532 51 349 0.0 0.0 0.00 1.42 0.00 95 1011.8
20260506004032 51 349 0.0 0.0 0.00 1.42 0.00 95 1011.7
20260506003531 51 349 0.0 0.0 0.00 1.42 0.00 95 1011.7
20260506003036 51 349 0.0 0.0 0.00 1.42 0.00 95 1011.7
20260506002531 51 349 0.0 0.0 0.00 1.42 0.00 95 1011.7
20260506002031 51 349 0.0 0.0 0.00 1.42 0.00 95 1011.7
20260506001536 51 349 0.0 0.0 0.00 1.42 0.00 95 1011.8
20260506001030 51 349 0.0 0.0 0.00 1.42 0.00 95 1011.9
20260506000530 51 349 0.0 0.0 0.00 1.42 0.00 95 1011.9
20260506000029 51 349 0.0 0.0 0.00 1.42 0.00 95 1011.9
20260505235530 51 349 0.0 0.0 0.00 1.59 0.00 95 1011.9
20260505235033 51 349 0.0 0.0 0.00 1.59 0.00 95 1011.9
20260505234535 51 349 0.0 0.0 0.00 1.59 0.00 95 1012.0
20260505234031 51 349 0.0 0.0 0.00 1.59 0.00 95 1011.9
20260505233527 51 349 0.0 0.0 0.00 1.59 0.00 95 1012.0
20260505233027 51 349 0.0 0.0 0.00 1.59 0.00 95 1012.0
20260505232527 51 349 0.0 0.0 0.00 1.59 0.00 95 1012.1
20260505232027 51 349 0.0 0.0 0.00 1.59 0.00 95 1012.1
20260505231527 51 349 0.0 0.0 0.00 1.59 0.00 95 1012.1
20260505231026 51 323 0.0 0.0 0.00 1.59 0.00 95 1012.1
20260505230526 51 355 0.0 4.3 0.00 1.59 0.00 95 1012.1
20260505230045 51 355 0.0 4.3 0.00 1.59 0.00 95 1012.1
20260505225526 51 336 0.0 0.0 0.00 1.67 0.00 95 1012.1
20260505225027 51 336 0.0 3.5 0.00 1.67 0.00 95 1012.1
20260505224526 51 329 0.0 3.5 0.00 1.67 0.00 95 1012.1
20260505224025 51 339 0.0 7.0 0.00 1.67 0.00 95 1012.1
20260505223524 51 332 1.7 7.0 0.00 1.67 0.00 95 1012.1
20260505223024 51 324 0.0 4.3 0.00 1.67 0.00 95 1012.2
20260505222525 51 319 0.0 4.3 0.00 1.67 0.00 95 1012.2
20260505222024 51 333 0.0 4.3 0.00 1.67 0.00 95 1012.2
20260505221523 51 326 0.0 4.3 0.00 1.67 0.00 95 1012.2
20260505221027 51 340 0.0 3.5 0.00 1.67 0.00 95 1012.1
20260505220522 51 348 0.0 7.0 0.00 1.67 0.00 94 1012.2
20260505220030 51 339 0.0 7.0 0.00 1.67 0.00 94 1012.2
20260505215525 51 355 0.0 4.3 0.00 1.68 1.67 94 1012.2
20260505215021 51 17 0.0 4.3 0.00 1.68 1.67 94 1012.2
20260505214521 51 350 0.0 5.2 0.00 1.68 1.67 94 1012.3
20260505214021 51 336 0.0 5.2 0.00 1.68 1.67 94 1012.3
20260505213521 51 339 0.0 4.3 0.00 1.68 1.67 94 1012.3
20260505213023 51 333 0.0 0.0 0.00 1.68 1.67 94 1012.4
20260505212524 51 349 0.0 2.6 0.00 1.68 1.67 94 1012.4
20260505212020 51 349 0.0 4.3 0.00 1.68 1.67 95 1012.5
20260505211520 51 344 0.0 4.3 0.00 1.68 1.67 95 1012.4
20260505211019 51 350 0.0 4.3 0.00 1.68 1.67 95 1012.4
20260505210519 51 355 0.9 9.6 0.00 1.68 1.67 94 1012.4
20260505210019 51 9 1.7 9.6 0.00 1.68 1.67 94 1012.4
20260505205519 51 307 0.0 7.0 0.00 1.68 1.67 94 1012.4
20260505205023 51 338 0.9 7.0 0.00 1.68 1.67 94 1012.3
20260505204518 51 333 0.9 7.0 0.00 1.68 1.67 94 1012.3
20260505204017 51 325 0.9 7.0 0.00 1.68 1.67 94 1012.3
20260505203517 51 311 0.0 5.2 0.00 1.68 1.67 94 1012.3
20260505203020 51 344 0.0 7.0 0.00 1.68 1.67 94 1012.3
20260505202517 51 360 0.0 7.0 0.00 1.68 1.67 95 1012.2
20260505202017 51 346 0.0 3.5 0.00 1.68 1.67 95 1012.2
20260505201516 51 351 0.0 4.3 0.00 1.68 1.67 95 1012.1
20260505201016 51 348 0.0 4.3 0.00 1.68 1.67 95 1012.1
20260505200516 51 335 0.0 0.9 0.00 1.68 1.67 95 1012.0
20260505200015 51 325 0.0 5.2 0.00 1.68 1.67 95 1011.9
20260505195519 51 325 0.0 5.2 0.00 1.68 1.67 95 1011.9
20260505195015 51 326 0.0 4.3 0.00 1.68 1.67 95 1011.9
20260505194515 51 360 0.0 4.3 0.00 1.68 1.67 95 1011.8
20260505194015 51 326 0.0 4.3 0.00 1.68 1.67 95 1011.8
20260505193514 51 346 0.0 4.3 0.00 1.68 1.67 95 1011.7
20260505193014 51 346 0.0 4.3 0.00 1.68 1.67 95 1011.7
20260505192519 51 355 0.0 4.3 0.00 1.68 1.67 95 1011.6
20260505192014 51 355 0.0 3.5 0.00 1.68 1.67 95 1011.6
20260505191515 51 355 0.0 7.0 0.00 1.68 1.67 95 1011.7
20260505191014 51 343 0.0 7.0 0.00 1.68 1.67 95 1011.7
20260505190513 51 347 0.0 3.5 0.00 1.68 1.67 95 1011.7
20260505190013 51 326 0.0 5.2 0.00 1.68 1.67 95 1011.7
20260505185513 52 337 0.0 8.7 0.00 1.68 1.67 95 1011.7
20260505185013 52 298 0.0 4.3 0.00 1.68 1.67 95 1011.6
20260505184513 52 318 0.0 10.4 0.00 1.68 1.67 95 1011.5
20260505184013 52 345 3.5 10.4 0.00 1.68 1.67 95 1011.5
20260505183512 52 355 0.0 8.7 0.00 1.68 1.67 94 1011.5
20260505183012 52 360 0.9 8.7 0.00 1.68 1.67 94 1011.4
20260505182512 52 343 0.0 8.7 0.00 1.68 1.67 94 1011.4
20260505182016 52 317 2.6 8.7 0.00 1.68 1.67 94 1011.4
20260505181512 52 29 1.7 7.8 0.00 1.68 1.67 94 1011.4
20260505181012 52 333 2.6 8.7 0.00 1.68 1.67 95 1011.4
20260505180611 52 331 2.6 8.7 0.00 1.68 1.67 95 1011.4
20260505180030 52 351 0.0 7.0 0.00 1.68 1.67 95 1011.4
20260505175510 52 355 0.0 7.0 0.00 1.68 1.67 95 1011.4
20260505175010 52 326 0.0 5.2 0.00 1.68 1.67 95 1011.4
20260505174510 52 315 1.7 5.2 0.00 1.68 1.67 95 1011.4
20260505174010 52 333 0.0 4.3 0.00 1.68 1.67 95 1011.4
20260505173508 52 332 0.0 0.9 0.00 1.68 1.67 95 1011.4
20260505173009 52 331 0.0 0.0 0.00 1.68 1.67 95 1011.4
20260505172515 52 329 0.0 0.0 0.00 1.68 1.67 95 1011.4
20260505172012 52 318 0.0 3.5 0.00 1.68 1.67 95 1011.4
20260505171509 52 335 0.0 4.3 0.00 1.68 1.67 95 1011.4
20260505171014 52 339 0.0 4.3 0.01 1.68 1.67 95 1011.4
20260505170509 52 335 0.0 3.5 0.01 1.68 1.67 95 1011.4
20260505170008 52 303 0.0 3.5 0.01 1.68 1.67 95 1011.4
20260505165508 52 5 0.0 5.2 0.02 1.68 1.67 95 1011.4
20260505165008 52 351 0.0 5.2 0.02 1.68 1.67 95 1011.4
20260505164508 52 325 0.0 7.0 0.03 1.68 1.67 95 1011.4
20260505164008 52 355 0.0 7.0 0.03 1.68 1.67 95 1011.4
20260505163513 52 342 0.0 7.8 0.04 1.68 1.67 95 1011.5
20260505163009 52 355 2.6 7.8 0.05 1.68 1.67 95 1011.5
20260505162507 52 355 0.9 7.8 0.05 1.68 1.67 95 1011.4
20260505162007 52 334 0.9 9.6 0.06 1.68 1.67 95 1011.5
20260505161507 52 355 2.6 11.3 0.06 1.68 1.67 95 1011.5
20260505161006 52 332 0.9 11.3 0.06 1.67 1.66 95 1011.4
20260505160507 52 360 0.9 8.7 0.06 1.67 1.66 95 1011.5
20260505153010 52 334 0.9 9.6 0.06 1.63 1.62 95 1011.4
20260505152508 52 318 2.6 9.6 0.06 1.63 1.62 95 1011.4
20260505152008 52 355 1.7 9.6 0.06 1.62 1.61 95 1011.4
20260505151505 52 326 1.7 9.6 0.06 1.61 1.61 95 1011.4
20260505151004 52 322 1.7 8.7 0.06 1.61 1.60 95 1011.4
20260505150504 52 344 0.0 8.7 0.06 1.60 1.59 95 1011.4
20260505140502 52 5 0.0 0.0 0.13 1.54 1.53 95 1011.3
20260505124558 51 28 1.7 7.0 0.11 1.38 1.37 95 1011.4
20260505124057 51 21 0.9 5.2 0.11 1.37 1.36 95 1011.4
20260505123556 51 19 0.0 0.9 0.10 1.35 1.35 94 1011.4
20260505123059 51 28 0.0 7.0 0.10 1.35 1.34 95 1011.4
20260505122556 51 25 0.9 7.8 0.10 1.34 1.33 94 1011.5
20260505122056 51 360 0.9 7.0 0.09 1.32 1.31 94 1011.5
20260505121556 52 21 0.0 5.2 0.09 1.31 1.31 94 1011.4
20260505121056 52 36 1.7 8.7 0.08 1.31 1.30 94 1011.4
20260505120556 51 18 4.3 8.7 0.07 1.29 1.28 94 1011.5
20260505120057 52 11 1.7 8.7 0.07 1.28 1.28 94 1011.4
20260505115555 51 12 1.7 5.2 0.07 1.28 1.28 94 1011.4
20260505115055 51 25 0.0 9.6 0.07 1.28 1.27 94 1011.4
20260505114559 52 9 2.6 11.3 0.07 1.27 1.26 94 1011.4
20260505114054 52 11 1.7 11.3 0.06 1.26 1.25 94 1011.4
20260505113553 52 5 1.7 10.4 0.06 1.25 1.24 94 1011.4
20260505113055 52 16 3.5 12.2 0.06 1.24 1.24 95 1011.4
20260505112553 52 34 1.7 12.2 0.06 1.24 1.23 95 1011.4
20260505112053 52 20 0.0 10.4 0.06 1.23 1.22 95 1011.4
20260505111553 52 12 4.3 12.2 0.06 1.23 1.22 95 1011.4
20260505111053 52 42 4.3 12.2 0.06 1.23 1.22 95 1011.5
20260505110551 52 5 2.6 7.0 0.06 1.22 1.21 95 1011.5
20260505102050 52 30 1.7 9.6 0.04 1.17 1.17 95 1011.4
20260505101605 52 10 5.2 9.6 0.04 1.17 1.15 95 1011.3
20260505101052 52 355 0.0 8.7 0.05 1.17 1.15 95 1011.3
20260505100548 52 9 1.7 8.7 0.05 1.17 1.15 95 1011.3
20260505100101 52 5 4.3 8.7 0.05 1.15 1.14 95 1011.3
20260505095548 52 14 3.5 9.6 0.06 1.15 1.14 95 1011.3
20260505095047 52 11 3.5 9.6 0.06 1.14 1.13 95 1011.3
20260505094548 52 5 2.6 8.7 0.06 1.14 1.13 95 1011.3
20260505094046 52 21 2.6 9.6 0.06 1.14 1.13 95 1011.2
20260505093546 52 34 4.3 9.6 0.06 1.13 1.12 95 1011.2
20260505093057 52 355 0.9 9.6 0.07 1.13 1.12 95 1011.2
20260505092546 52 24 0.9 8.7 0.06 1.12 1.12 95 1011.2
20260505092046 52 5 2.6 8.7 0.07 1.12 1.12 95 1011.2
20260505091545 52 20 0.0 10.4 0.07 1.12 1.12 95 1011.2
20260505091045 52 360 5.2 11.3 0.07 1.12 1.11 95 1011.2
20260505090545 52 9 1.7 8.7 0.08 1.12 1.11 95 1011.2
20260505090044 52 27 0.9 8.7 0.08 1.11 1.10 95 1011.2
20260505085544 52 5 4.3 8.7 0.08 1.10 1.09 95 1011.2
20260505085044 52 11 3.5 10.4 0.09 1.09 1.09 96 1011.2
20260505084544 52 5 4.3 12.2 0.09 1.09 1.09 95 1011.2
20260505084042 52 19 2.6 12.2 0.09 1.09 1.08 95 1011.3
20260505083543 52 15 6.1 12.2 0.09 1.08 1.07 95 1011.3
20260505083040 52 350 3.5 11.3 0.09 1.07 1.06 96 1011.3
20260505082540 52 21 3.5 11.3 0.10 1.06 1.06 96 1011.2
20260505082039 52 17 5.2 10.4 0.11 1.06 1.06 96 1011.2
20260505081541 52 350 2.6 7.0 0.10 1.06 1.05 96 1011.1
20260505081038 52 19 0.9 7.0 0.10 1.05 1.04 96 1011.1
20260505080540 52 15 1.7 7.0 0.10 1.04 1.03 96 1011.2
20260505080047 52 13 3.5 7.0 0.10 1.03 1.02 96 1011.2
20260505075537 52 17 0.9 5.2 0.10 1.02 1.02 96 1011.2
20260505075037 51 11 0.9 8.7 0.09 1.01 1.00 96 1011.2
20260505074537 52 21 4.3 9.6 0.09 1.00 0.99 95 1011.2
20260505074036 51 339 2.6 7.0 0.09 0.99 0.98 95 1011.2
20260505073535 51 24 0.9 4.3 0.08 0.98 0.98 96 1011.1
20260505073039 51 10 0.0 2.6 0.07 0.97 0.96 96 1011.1
20260505072535 51 5 0.0 7.0 0.07 0.96 0.95 96 1011.1
20260505072034 51 16 0.0 6.1 0.08 0.95 0.94 96 1011.1
20260505071537 51 5 0.0 7.0 0.09 0.95 0.94 96 1011.2
20260505071036 51 27 0.9 7.8 0.09 0.94 0.94 96 1011.2
20260505070533 51 11 0.0 7.8 0.09 0.94 0.93 96 1011.2
20260505070032 51 350 0.0 4.3 0.09 0.93 0.92 96 1011.2
20260505065530 51 349 0.0 4.3 0.09 0.92 0.91 96 1011.2
20260505065029 51 347 0.0 0.0 0.10 0.92 0.91 96 1011.2
20260505064528 51 338 0.0 7.8 0.11 0.91 0.91 96 1011.3
20260505064028 51 336 0.9 7.8 0.11 0.91 0.90 96 1011.3
20260505063529 51 355 3.5 11.3 0.12 0.90 0.89 95 1011.3
20260505063027 51 355 3.5 11.3 0.13 0.90 0.89 96 1011.3
20260505062527 50 340 0.9 8.7 0.13 0.89 0.88 96 1011.4
20260505062027 50 314 1.7 7.8 0.12 0.87 0.87 95 1011.3
20260505061532 50 328 1.7 9.6 0.12 0.87 0.86 95 1011.3
20260505061026 50 319 2.6 9.6 0.11 0.85 0.84 95 1011.3
20260505060525 50 349 2.6 9.6 0.12 0.84 0.83 95 1011.3
20260505060027 50 326 0.9 7.0 0.12 0.83 0.83 95 1011.2
20260505055525 50 273 0.0 0.9 0.12 0.83 0.82 96 1011.3
20260505055024 50 339 0.0 7.0 0.13 0.82 0.81 95 1011.3
20260505054523 50 344 0.0 7.0 0.12 0.80 0.80 95 1011.3
20260505054022 50 327 0.0 4.3 0.12 0.79 0.78 95 1011.3
20260505053522 50 5 0.0 5.2 0.12 0.78 0.77 95 1011.3
20260505053034 50 311 0.9 5.2 0.12 0.76 0.76 95 1011.3
20260505052523 49 317 0.0 1.7 0.12 0.76 0.75 95 1011.3
20260505052024 49 317 0.0 2.6 0.13 0.76 0.75 95 1011.3